Regional Weather Roundup
Issued by NWS

Home | Current Version | Previous Version | Graphics & Text | Print | Product List | Glossary On
Versions: 1 2 3 4 5 6 7 8 9 10 11 12 13 14 15 16 17 18 19 20 21 22 23 24 25 26 27 28 29 30 31 32 33 34 35 36 37 38 39 40 41 42 43 44 45 46 47 48 49 50
000
ASUS43 KIND 290509
RWRIN

WEATHER ROUNDUP FOR INDIANA
NATIONAL WEATHER SERVICE INDIANAPOLIS IN
100 AM EDT WED JUL 29 2015

NOTE: "FAIR" INDICATES FEW OR NO CLOUDS BELOW 12,000 FEET WITH NO
SIGNIFICANT WEATHER AND/OR OBSTRUCTIONS TO VISIBILITY.

* - STATION DOES NOT REPORT WEATHER SUCH AS PRECIPITATION OR FOG.

+ - STATION NOT QUALITY CONTROLLED BY THE NATIONAL WEATHER SERVICE.
    USE DATA WITH CAUTION...ESPECIALLY DEWPOINT AND RELATIVE
    HUMIDITY OBSERVATIONS.

INZ001>003-010>013-019-020-290600-
NORTHWEST INDIANA

CITY           SKY/WX    TMP DP  RH WIND       PRES   REMARKS
GARY /AIRPORT/ CLEAR     76  74  96 CALM      29.96R
KNOX *+        PTCLDY    73  73 100 E3        29.97R
LA PORTE +     CLEAR     76  76 100 CALM      29.98S
MICHIGAN CITY+ CLEAR     77  72  83 CALM      29.97S
MONTICELLO +   CLEAR     76  76 100 CALM      29.97R
RENSSELAER +   CLEAR     75  75 100 CALM      29.97S
VALPARAISO     CLEAR     75  72  90 CALM      29.98R

$$

LMZ046-743>745-290600-
SOUTHERN LAKE MICHIGAN

STATION/POSITION TIME  TEMP    WIND        PRES    WAVE
                       AIR SEA DIR/SP/G            HT
                 (UTC) (F)     (DEG/KT/KT) (MB)    (FT)
BURNS HARBOR     0400   80     200/  6/  6 1014.6F
MICHIGAN CITY    0400   81     130/  5/  7   N/A
5NW MICH CITY    0500   77 76  180/  6/  6   N/A     0

$$

INZ004-005-014>016-021>024-290600-
NORTH CENTRAL INDIANA

CITY           SKY/WX    TMP DP  RH WIND       PRES   REMARKS
GOSHEN         PTCLDY    74  70  87 CALM      29.99S
LOGANSPORT +   CLEAR     73  68  83 CALM      29.99R
PERU/GRISSOM   CLEAR     77  73  86 SE3       29.98R
ROCHESTER +    CLEAR     77  77 100 CALM      29.98S
SOUTH BEND     PTCLDY    80  71  74 CALM      29.98S
WARSAW +       CLEAR     72  72 100 CALM      29.99S

$$

INZ006>009-017-018-025>027-290600-
NORTHEAST INDIANA

CITY           SKY/WX    TMP DP  RH WIND       PRES   REMARKS
ANGOLA *+      CLEAR     75  66  73 SE6       30.00F
AUBURN +       CLEAR     73  64  73 CALM      30.01R
FORT WAYNE     PTCLDY    75  71  87 CALM      29.99F
HUNTINGTON +   CLEAR     76  73  89 CALM      29.99R

$$

INZ028-029-035-036-043>045-051>053-290600-
WEST CENTRAL INDIANA

CITY           SKY/WX    TMP DP  RH WIND       PRES   REMARKS
CRAWFORDSVL +  CLEAR     73  73 100 CALM        N/A  FOG
GREENCASTLE +  CLEAR     73  72  94 CALM      29.99S FOG
LAFAYETTE      PTCLDY    76  75  97 CALM      29.96R FOG
TERRE HAUTE    CLEAR     76  74  93 CALM      29.97R FOG

$$

INZ030>032-037>040-046>048-054>057-064-065-290600-
CENTRAL INDIANA

CITY           SKY/WX    TMP DP  RH WIND       PRES   REMARKS
FISHERS *+     CLEAR     73  73 100 CALM      29.99S
FRANKFORT +    CLEAR    N/A N/A N/A CALM      30.01R HAZE
GREENWOOD *+   CLEAR     73  72  94 CALM      29.99F
INDIANAPOLIS   PTCLDY    80  72  76 CALM      29.97S
-EAGLE CREEK   CLEAR     77  74  90 CALM      29.98S
KOKOMO *+      CLEAR     73  72  94 CALM      29.99R
MARION +       PTCLDY    74  73  95 CALM      30.00R
MT COMFORT *+  CLEAR     73 N/A N/A S3        30.00R
SHELBYVILLE    CLEAR     76  73  91 CALM      29.98S FOG
ZIONSVILLE +   CLEAR     74  71  90 CALM      30.00R FOG

$$

INZ033-034-041-042-049-050-058-059-290600-
EAST CENTRAL INDIANA

CITY           SKY/WX    TMP DP  RH WIND       PRES   REMARKS
MUNCIE         CLEAR     73  71  93 CALM      29.99F

$$

INZ060-061-067>069-081>083-085>088-290600-
SOUTHWEST INDIANA

CITY           SKY/WX    TMP DP  RH WIND       PRES   REMARKS
EVANSVILLE     CLOUDY    76  72  87 SW6       29.98S
HUNTINGBURG *+ MOCLDY    75  72  88 CALM      29.98F
WASHINGTON +   MOCLDY    75  72  88 CALM      29.97R

$$

INZ062-063-066-070>080-084-089>092-290600-
SOUTH CENTRAL AND SOUTHEAST INDIANA

CITY           SKY/WX    TMP DP  RH WIND       PRES   REMARKS
BLOOMINGTON    CLEAR     74  73  97 CALM      29.98F
MADISON *+     CLEAR     75  72  88 CALM      30.01F
NORTH VERNON + CLEAR     77  77 100 CALM      29.99F FOG
SEYMOUR +      CLEAR     77  75  94 CALM      29.97F FOG

$$



USA.gov is the U.S. government's official web portal to all federal, state and local government web resources and services.